Lid_Strength_Index
1 1 1 1 1 1 1 1 0 1 1 1 1 1 1 1 0 -0 0 1 1 1
1 1 1 1 0 1 0 0 0 0 1 1 1 1 1 0 0 1 1 1 1 2
1 1 1 0 1 1 0 0 1 1 1 1 1 1 1 1 2 2 2 2 3 3
1 1 1 1 1 1 0 0 1 1 1 1 1 1 1 2 2 3 3 3 3 3
1 1 1 1 1 0 1 0 1 1 1 1 1 1 2 2 2 2 3 3 4 4
1 1 1 1 1 1 1 1 1 1 2 2 2 2 2 2 2 3 3 4 6 6
2 1 1 1 1 1 1 1 2 2 2 2 2 2 2 4 5 6 6 7 7 7
3 3 3 3 3 4 4 4 4 5 6 6 6 7 7 7 7 8 8 8 8 8
6 8 8 8 9 9 10 9 9 10 10 10 10 10 10 9 8 8 8 8 9 9
10 10 9 9 9 9 9 10 10 10 10 11 11 11 10 11 8 8 8 8 9 10
10 11 11 11 10 10 10 10 11 11 12 12 12 11 11 11 9 9 9 9 9 9
10 12 12 12 12 12 12 13 13 13 13 13 13 11 11 11 11 11 11 11 10 10
11 12 12 12 12 13 12 14 14 14 14 14 13 11 11 11 11 12 12 12 12 12
12 13 12 13 13 13 14 14 15 15 15 15 13 12 11 11 11 11 11 12 12 11